Weather History for Racine, WI

Change the Weather History Date:

Sunday, December 9, 2012

  Actual Average Record
Temperature  
Mean Temperature 37 °F -  
Max Temperature 39 °F 34 °F 58 °F (1952)
Min Temperature 35 °F 21 °F -10 °F (1958)
Degree Days  
Heating Degree Days 28    
Moisture  
Dew Point 35 °F    
Average Humidity 90    
Maximum Humidity 97    
Minimum Humidity 70    
Precipitation  
Precipitation 0.23 in - - ()
Sea Level Pressure  
Sea Level Pressure 29.88 in    
Wind  
Wind Speed 13 mph (East)    
Max Wind Speed 17 mph    
Max Gust Speed 24 mph    
Visibility 5 miles    
Events Rain    
Averages and records for this station are not official NWS values.
T = Trace of Precipitation, MM = Missing Value Source: NWS Daily Summary

Daily Weather History Graph

Daily Weather History Graph

Search for Another Location

Airport:

Trip Planner

Search our weather history database for the weather conditions in past years. The results will help you decide how hot, cold, wet, or windy it might be!

Date:

Astronomy

Dec. 09, 2012 Rise Set
Actual Time 7:10 AM CST 4:17 PM CST
Civil Twilight 6:38 AM CST 4:49 PM CST
Nautical Twilight 6:02 AM CST 5:24 PM CST
Astronomical Twilight 5:28 AM CST 5:59 PM CST
Moon 2:38 AM CST (12/9) 1:27 PM CST (12/9)
Length of Visible Light 10h 10m
Length of Day
9h 06m
Waning Crescent, 18% of the Moon is Illuminated
Dec 9
Waning Crescent
Dec 13
New
Dec 19
First Quarter
Dec 28
Full
Jan 4
Last Quarter

Hourly Weather History & Observations

Time (CST) Temp. Windchill Dew Point Humidity Pressure Visibility Wind Dir Wind Speed Gust Speed Precip Events Conditions
12:36 AM 37.4 °F 28.9 °F 28.4 °F 70% 30.12 in 10.0 mi East 13.8 mph - N/A   Mostly Cloudy
12:53 AM 37.0 °F 28.1 °F 28.9 °F 73% 30.13 in 10.0 mi ESE 15.0 mph - N/A   Mostly Cloudy
1:19 AM 35.6 °F 26.6 °F 28.4 °F 75% 30.11 in 10.0 mi East 13.8 mph 21.9 mph N/A   Mostly Cloudy
1:43 AM 37.4 °F 29.3 °F 28.4 °F 70% 30.11 in 10.0 mi East 12.7 mph 21.9 mph N/A   Mostly Cloudy
1:53 AM 37.0 °F 28.1 °F 28.0 °F 70% 30.14 in 10.0 mi East 15.0 mph - N/A   Overcast
2:53 AM 37.0 °F 27.4 °F 30.0 °F 76% 30.12 in 10.0 mi East 17.3 mph 21.9 mph N/A   Overcast
3:53 AM 37.0 °F 28.9 °F 30.9 °F 79% 30.10 in 10.0 mi East 12.7 mph 21.9 mph N/A   Overcast
4:53 AM 36.0 °F 27.1 °F 33.1 °F 89% 30.08 in 7.0 mi ESE 13.8 mph - 0.00 in Rain Light Rain
5:02 AM 35.6 °F 26.2 °F 33.8 °F 93% 30.05 in 7.0 mi ESE 15.0 mph 24.2 mph 0.01 in Rain Light Rain
5:04 AM 35.6 °F 26.2 °F 33.8 °F 93% 30.05 in 7.0 mi ESE 15.0 mph - 0.01 in Rain Light Rain
5:12 AM 35.6 °F 25.5 °F 33.8 °F 93% 30.05 in 8.0 mi ESE 17.3 mph - 0.01 in Rain Light Rain
5:23 AM 35.6 °F 26.2 °F 33.8 °F 93% 30.05 in 8.0 mi ESE 15.0 mph 23.0 mph 0.01 in Rain Light Rain
5:53 AM 36.0 °F 26.3 °F 34.0 °F 93% 30.06 in 7.0 mi ESE 16.1 mph 21.9 mph 0.01 in Rain Light Rain
6:00 AM 35.6 °F 25.5 °F 33.8 °F 93% 30.04 in 7.0 mi ESE 17.3 mph 23.0 mph 0.01 in Rain Light Rain
6:53 AM 37.0 °F 28.1 °F 35.1 °F 93% 30.04 in 10.0 mi ESE 15.0 mph - 0.01 in   Overcast
7:53 AM 37.9 °F 28.5 °F 35.1 °F 89% 30.03 in 10.0 mi ESE 17.3 mph - 0.00 in   Overcast
8:53 AM 37.9 °F 29.2 °F 35.1 °F 89% 30.01 in 10.0 mi ESE 15.0 mph - 0.00 in   Overcast
9:53 AM 39.0 °F 30.3 °F 35.1 °F 86% 29.99 in 8.0 mi East 16.1 mph - 0.01 in Rain Light Rain
10:53 AM 37.9 °F 29.6 °F 36.0 °F 93% 29.95 in 1.8 mi East 13.8 mph - 0.03 in Rain Light Rain
11:17 AM 37.4 °F 29.3 °F 35.6 °F 93% 29.91 in 1.5 mi East 12.7 mph - 0.02 in Rain Light Rain
11:33 AM 37.4 °F 28.5 °F 35.6 °F 93% 29.89 in 2.0 mi East 15.0 mph - 0.03 in Rain Light Rain
11:53 AM 37.0 °F 28.1 °F 35.1 °F 93% 29.89 in 3.0 mi East 15.0 mph 21.9 mph 0.05 in Rain Light Rain
12:30 PM 37.4 °F 29.8 °F 35.6 °F 93% 29.86 in 2.0 mi East 11.5 mph - 0.01 in Rain Light Rain
12:41 PM 37.4 °F 28.9 °F 35.6 °F 93% 29.85 in 1.8 mi East 13.8 mph - 0.03 in Rain Rain
12:50 PM 37.4 °F 28.5 °F 35.6 °F 93% 29.84 in 2.5 mi East 15.0 mph - 0.04 in Rain Light Rain
12:53 PM 37.0 °F 28.1 °F 35.1 °F 93% 29.86 in 3.0 mi East 15.0 mph - 0.04 in Rain Light Rain
1:53 PM 37.0 °F 27.7 °F 35.1 °F 93% 29.81 in 6.0 mi East 16.1 mph - 0.02 in Rain Light Rain
2:53 PM 37.9 °F 30.0 °F 35.1 °F 89% 29.82 in 5.0 mi East 12.7 mph 20.7 mph 0.00 in Rain Light Rain
3:00 PM 37.4 °F 30.3 °F 35.6 °F 93% 29.80 in 1.8 mi East 10.4 mph - 0.01 in Rain Light Rain
3:13 PM 37.4 °F 28.5 °F 35.6 °F 93% 29.79 in 2.0 mi East 15.0 mph 20.7 mph 0.01 in Rain Light Rain
3:25 PM 37.4 °F 29.8 °F 35.6 °F 93% 29.79 in 1.8 mi East 11.5 mph - 0.02 in Rain Light Rain
3:53 PM 37.0 °F 28.9 °F 36.0 °F 96% 29.80 in 1.2 mi East 12.7 mph - 0.02 in   Overcast
4:15 PM 37.4 °F 28.9 °F 35.6 °F 93% 29.77 in 3.0 mi East 13.8 mph - 0.01 in Rain Light Rain
4:53 PM 37.0 °F 29.8 °F 36.0 °F 96% 29.77 in 8.0 mi East 10.4 mph - 0.01 in   Overcast
5:49 PM 37.4 °F 29.8 °F 35.6 °F 93% 29.75 in 2.0 mi ENE 11.5 mph - 0.00 in   Overcast
5:53 PM 37.0 °F 29.3 °F 36.0 °F 96% 29.76 in 2.0 mi East 11.5 mph - 0.00 in   Overcast
6:53 PM 37.9 °F 31.5 °F 37.0 °F 97% 29.73 in 2.0 mi East 9.2 mph - 0.00 in   Overcast
7:16 PM 39.2 °F 34.2 °F 37.4 °F 93% 29.71 in 2.0 mi ENE 6.9 mph - 0.01 in   Overcast
7:35 PM 39.2 °F 35.0 °F 37.4 °F 93% 29.71 in 1.5 mi NE 5.8 mph - 0.01 in   Overcast
7:53 PM 39.0 °F 36.8 °F 37.9 °F 96% 29.72 in 1.8 mi NNE 3.5 mph - 0.01 in   Overcast
8:08 PM 39.2 °F 35.9 °F 37.4 °F 93% 29.71 in 2.0 mi North 4.6 mph - 0.01 in   Overcast
8:24 PM 39.2 °F 35.0 °F 37.4 °F 93% 29.70 in 1.8 mi NNE 5.8 mph - 0.02 in Rain Light Rain
8:34 PM 39.2 °F 35.9 °F 37.4 °F 93% 29.69 in 2.5 mi North 4.6 mph - 0.02 in   Overcast
8:42 PM 39.2 °F - 37.4 °F 93% 29.69 in 3.0 mi Calm Calm - 0.02 in   Overcast
8:53 PM 39.0 °F 36.8 °F 37.9 °F 96% 29.71 in 3.0 mi North 3.5 mph - 0.02 in   Overcast
9:53 PM 39.0 °F 36.8 °F 37.9 °F 96% 29.69 in 5.0 mi WNW 3.5 mph - N/A   Overcast
10:53 PM 37.9 °F 32.1 °F 37.0 °F 97% 29.70 in 4.0 mi WSW 8.1 mph - N/A   Overcast
11:35 PM 37.4 °F 30.8 °F 35.6 °F 93% 29.69 in 5.0 mi West 9.2 mph 19.6 mph 0.00 in   Overcast
11:43 PM 37.4 °F 31.4 °F 35.6 °F 93% 29.69 in 5.0 mi West 8.1 mph - 0.00 in   Overcast
11:53 PM 37.0 °F 31.6 °F 35.1 °F 93% 29.70 in 6.0 mi West 6.9 mph - 0.00 in   Overcast